Location: *
(41.7492°S, 135.4150°W)
Time: 19:26:20
(UTC+00:00)

Oscar 19 - Pass Details

Date: 08 July 2022
Orbit: 773 x 790 km, 98.8° (Epoch: 09 August)

Event Time Altitude Azimuth Distance (km) Brightness Sun altitude
Rises 02:28:34 0° 188° (S) 3,327 13.7 -8.1°
Reaches altitude 10° 02:33:10 10° 225° (SW) 2,385 13.5 -8.9°
Maximum altitude 02:34:08 11° 236° (SW) 2,346 13.6 -9.0°
Drops below altitude 10° 02:35:07 10° 247° (WSW) 2,380 13.8 -9.2°
Sets 02:39:42 0° 284° (WNW) 3,294 16.1 -10.0°
